When you browse on this site, cookies collect data to enhance your experience and personalize the content and advertising you see.
Visit our Privacy Policy to learn more. By continuing to use the site, you agree to this use of cookies and data.
  • In Czech Republic
  • List of Countries
  • For 7 days
  • Water Temperature
  • Satellite Maps
  • Weather Map
  • Weather Widgets
  • user-avatar
    Login

    Hourly Weather Elovka

    Today, 21 May, Tuesday

    Time Temperature Precipitation Wind Pressure Humidity
    00:00 +15°C° 0 mm 4 mps 746 mmHg 78%
    01:00 +15°C° 0 mm 4 mps 746 mmHg 79%
    02:00 +14°C° 0 mm 4 mps 746 mmHg 80%
    03:00 +14°C° 0 mm 4 mps 746 mmHg 79%
    04:00 +14°C° 0 mm 4 mps 746 mmHg 79%
    05:00 +14°C° 0 mm 5 mps 746 mmHg 79%
    06:00 +16°C° 0 mm 5 mps 746 mmHg 74%
    07:00 +17°C° 0 mm 5 mps 746 mmHg 68%
    08:00 +20°C° 0 mm 6 mps 746 mmHg 62%
    09:00 +21°C° 0 mm 6 mps 746 mmHg 59%
    10:00 +22°C° 0 mm 6 mps 746 mmHg 56%
    11:00 +23°C° 0 mm 6 mps 746 mmHg 53%
    12:00 +23°C° 0 mm 6 mps 745 mmHg 53%
    13:00 +24°C° 0 mm 6 mps 745 mmHg 53%
    14:00 +26°C° 0 mm 5 mps 744 mmHg 53%
    15:00 +23°C° 0.4 mm 5 mps 744 mmHg 61%
    16:00 +22°C° 0.4 mm 5 mps 744 mmHg 68%
    17:00 +20°C° 0.4 mm 5 mps 743 mmHg 76%
    18:00 +19°C° 0.2 mm 5 mps 743 mmHg 81%
    19:00 +18°C° 0.2 mm 4 mps 743 mmHg 86%
    20:00 +17°C° 0.2 mm 4 mps 743 mmHg 90%
    21:00 +15°C° 0.1 mm 4 mps 743 mmHg 92%
    22:00 +15°C° 0.1 mm 4 mps 743 mmHg 93%
    23:00 +14°C° 0.1 mm 4 mps 742 mmHg 94%

    Tomorrow, 22 May, Wednesday

    Time Temperature Precipitation Wind Pressure Humidity
    00:00 +14°C° 0 mm 3 mps 742 mmHg 95%
    01:00 +14°C° 0 mm 3 mps 742 mmHg 96%
    02:00 +13°C° 0 mm 3 mps 742 mmHg 96%
    03:00 +13°C° 0 mm 3 mps 742 mmHg 96%
    04:00 +13°C° 0 mm 3 mps 742 mmHg 97%
    05:00 +13°C° 0 mm 3 mps 741 mmHg 97%
    06:00 +14°C° 0 mm 3 mps 741 mmHg 92%
    07:00 +17°C° 0 mm 2 mps 741 mmHg 87%
    08:00 +18°C° 0 mm 2 mps 741 mmHg 82%
    09:00 +20°C° 0 mm 2 mps 741 mmHg 73%
    10:00 +21°C° 0 mm 2 mps 741 mmHg 64%
    11:00 +24°C° 0 mm 2 mps 741 mmHg 55%
    12:00 +24°C° 0 mm 2 mps 741 mmHg 53%
    13:00 +25°C° 0 mm 2 mps 740 mmHg 50%
    14:00 +25°C° 0 mm 2 mps 740 mmHg 47%
    15:00 +25°C° 0 mm 2 mps 740 mmHg 53%
    16:00 +24°C° 0 mm 2 mps 740 mmHg 59%
    17:00 +23°C° 0 mm 2 mps 739 mmHg 65%
    18:00 +20°C° 0 mm 2 mps 739 mmHg 70%
    19:00 +19°C° 0 mm 2 mps 739 mmHg 75%
    20:00 +18°C° 0 mm 2 mps 739 mmHg 80%
    21:00 +17°C° 0 mm 2 mps 739 mmHg 82%
    22:00 +16°C° 0 mm 1 mps 739 mmHg 83%
    23:00 +16°C° 0 mm 1 mps 739 mmHg 84%

    Day after tomorrow, 23 May, Thursday

    Time Temperature Precipitation Wind Pressure Humidity
    00:00 +15°C° 0 mm 1 mps 739 mmHg 85%
    01:00 +15°C° 0 mm 1 mps 739 mmHg 86%
    02:00 +14°C° 0 mm 1 mps 739 mmHg 87%
    03:00 +14°C° 0 mm 1 mps 739 mmHg 87%
    04:00 +15°C° 0 mm 1 mps 739 mmHg 86%
    05:00 +15°C° 0 mm 1 mps 739 mmHg 85%
    06:00 +18°C° 0 mm 1 mps 739 mmHg 79%
    07:00 +20°C° 0 mm 1 mps 739 mmHg 74%
    08:00 +20°C° 0 mm 2 mps 739 mmHg 68%
    09:00 +23°C° 0.1 mm 2 mps 739 mmHg 62%
    10:00 +24°C° 0.1 mm 2 mps 739 mmHg 57%
    11:00 +25°C° 0.1 mm 2 mps 739 mmHg 51%
    12:00 +25°C° 0 mm 2 mps 739 mmHg 50%
    13:00 +26°C° 0 mm 3 mps 739 mmHg 49%
    14:00 +26°C° 0 mm 3 mps 739 mmHg 48%
    15:00 +26°C° 0 mm 2 mps 739 mmHg 51%
    16:00 +25°C° 0 mm 2 mps 739 mmHg 54%
    17:00 +25°C° 0 mm 2 mps 739 mmHg 57%
    18:00 +23°C° 0.1 mm 1 mps 739 mmHg 63%
    19:00 +21°C° 0.1 mm 1 mps 739 mmHg 69%
    20:00 +20°C° 0.1 mm 1 mps 739 mmHg 75%
    21:00 +19°C° 0 mm 1 mps 739 mmHg 76%
    22:00 +18°C° 0 mm 1 mps 739 mmHg 78%
    23:00 +18°C° 0 mm 1 mps 739 mmHg 80%

    24 May, Friday

    Time Temperature Precipitation Wind Pressure Humidity
    00:00 +16°C° 0 mm 1 mps 739 mmHg 81%
    01:00 +16°C° 0 mm 1 mps 739 mmHg 82%
    02:00 +15°C° 0 mm 1 mps 739 mmHg 83%
    03:00 +15°C° 0 mm 1 mps 739 mmHg 83%
    04:00 +15°C° 0 mm 1 mps 739 mmHg 83%
    05:00 +16°C° 0 mm 1 mps 739 mmHg 83%
    06:00 +18°C° 0 mm 1 mps 740 mmHg 78%
    07:00 +20°C° 0 mm 1 mps 740 mmHg 72%
    08:00 +22°C° 0 mm 1 mps 740 mmHg 66%
    09:00 +24°C° 0.1 mm 1 mps 740 mmHg 60%
    10:00 +25°C° 0.1 mm 2 mps 740 mmHg 55%
    11:00 +26°C° 0.1 mm 2 mps 740 mmHg 49%
    12:00 +26°C° 0 mm 2 mps 740 mmHg 49%
    13:00 +26°C° 0 mm 2 mps 739 mmHg 50%
    14:00 +26°C° 0 mm 3 mps 739 mmHg 51%
    15:00 +26°C° 0 mm 2 mps 739 mmHg 55%
    16:00 +25°C° 0 mm 2 mps 739 mmHg 59%
    17:00 +24°C° 0 mm 2 mps 739 mmHg 63%
    18:00 +23°C° 0 mm 2 mps 739 mmHg 67%
    19:00 +20°C° 0 mm 2 mps 739 mmHg 71%
    20:00 +20°C° 0 mm 1 mps 739 mmHg 75%
    21:00 +18°C° 0.7 mm 2 mps 738 mmHg 80%
    22:00 +17°C° 0.7 mm 2 mps 738 mmHg 85%
    23:00 +16°C° 0.7 mm 2 mps 738 mmHg 90%

    25 May, Saturday

    Time Temperature Precipitation Wind Pressure Humidity
    00:00 +16°C° 1 mm 2 mps 738 mmHg 91%
    01:00 +16°C° 1 mm 1 mps 738 mmHg 91%
    02:00 +16°C° 1 mm 1 mps 738 mmHg 91%
    03:00 +16°C° 0 mm 1 mps 737 mmHg 91%
    04:00 +18°C° 0 mm 1 mps 737 mmHg 90%
    05:00 +18°C° 0 mm 1 mps 737 mmHg 90%
    06:00 +18°C° 0.9 mm 1 mps 737 mmHg 87%
    07:00 +18°C° 0.9 mm 2 mps 737 mmHg 83%
    08:00 +19°C° 0.9 mm 2 mps 737 mmHg 80%
    09:00 +19°C° 0.4 mm 2 mps 737 mmHg 79%
    10:00 +20°C° 0.4 mm 3 mps 737 mmHg 79%
    11:00 +20°C° 0.4 mm 3 mps 736 mmHg 78%
    12:00 +20°C° 0.2 mm 3 mps 736 mmHg 75%
    13:00 +21°C° 0.2 mm 4 mps 736 mmHg 72%
    14:00 +21°C° 0.2 mm 4 mps 736 mmHg 69%
    15:00 +21°C° 0.8 mm 4 mps 736 mmHg 72%
    16:00 +20°C° 0.8 mm 4 mps 736 mmHg 75%
    17:00 +20°C° 0.8 mm 4 mps 736 mmHg 78%
    18:00 +18°C° 0.2 mm 3 mps 736 mmHg 81%
    19:00 +17°C° 0.2 mm 2 mps 736 mmHg 83%
    20:00 +16°C° 0.2 mm 2 mps 736 mmHg 85%
    21:00 +15°C° 0 mm 2 mps 736 mmHg 86%
    22:00 +14°C° 0 mm 2 mps 736 mmHg 87%
    23:00 +12°C° 0 mm 3 mps 736 mmHg 88%

    26 May, Sunday

    Time Temperature Precipitation Wind Pressure Humidity
    00:00 +11°C° 0 mm 3 mps 736 mmHg 90%
    01:00 +11°C° 0 mm 3 mps 736 mmHg 91%
    02:00 +10°C° 0 mm 3 mps 736 mmHg 93%
    03:00 +10°C° 0 mm 3 mps 737 mmHg 93%
    04:00 +10°C° 0 mm 3 mps 737 mmHg 92%
    05:00 +10°C° 0 mm 4 mps 737 mmHg 91%
    06:00 +11°C° 0 mm 4 mps 737 mmHg 86%
    07:00 +12°C° 0 mm 4 mps 737 mmHg 80%
    08:00 +12°C° 0 mm 5 mps 737 mmHg 75%
    09:00 +13°C° 0 mm 5 mps 737 mmHg 74%
    10:00 +13°C° 0 mm 5 mps 737 mmHg 72%
    11:00 +14°C° 0 mm 5 mps 737 mmHg 71%
    12:00 +14°C° 0 mm 5 mps 737 mmHg 70%
    13:00 +14°C° 0 mm 5 mps 737 mmHg 70%
    14:00 +15°C° 0 mm 5 mps 737 mmHg 69%
    15:00 +14°C° 0.1 mm 5 mps 737 mmHg 70%
    16:00 +14°C° 0.1 mm 5 mps 737 mmHg 71%
    17:00 +14°C° 0.1 mm 5 mps 737 mmHg 72%
    18:00 +13°C° 0 mm 4 mps 737 mmHg 75%
    19:00 +12°C° 0 mm 4 mps 736 mmHg 78%
    20:00 +11°C° 0 mm 4 mps 736 mmHg 82%
    21:00 +11°C° 0 mm 4 mps 736 mmHg 84%
    22:00 +10°C° 0 mm 4 mps 736 mmHg 87%
    23:00 +10°C° 0 mm 4 mps 736 mmHg 89%
    Show more